| time (UTC) | temp F | wind direction | speed knots | gust knots | rain 1hr in | rain 24hr in | rain mn in | humidity % | barometer mb |
| 20260503224521 | 81 | 259 | 0.9 | 2.6 | 0.00 | 0.00 | 0.00 | 36 | 1011.3 |
| 20260503224008 | 80 | 360 | 0.9 | 4.3 | 0.00 | 0.00 | 0.00 | 40 | 1011.4 |
| 20260503223508 | 79 | 288 | 0.0 | 8.7 | 0.00 | 0.00 | 0.00 | 37 | 1011.5 |
| 20260503223021 | 79 | 12 | 1.7 | 8.7 | 0.00 | 0.00 | 0.00 | 37 | 1011.6 |
| 20260503222506 | 79 | 343 | 2.6 | 7.8 | 0.00 | 0.00 | 0.00 | 36 | 1011.6 |
| 20260503222008 | 79 | 46 | 1.7 | 5.2 | 0.00 | 0.00 | 0.00 | 35 | 1011.7 |
| 20260503221522 | 79 | 327 | 1.7 | 6.1 | 0.00 | 0.00 | 0.00 | 34 | 1011.8 |
| 20260503221009 | 79 | 312 | 1.7 | 6.1 | 0.00 | 0.00 | 0.00 | 38 | 1011.8 |
| 20260503220508 | 79 | 298 | 1.7 | 5.2 | 0.00 | 0.00 | 0.00 | 37 | 1011.9 |
| 20260503220020 | 78 | 325 | 2.6 | 7.8 | 0.00 | 0.00 | 0.00 | 37 | 1011.9 |
| 20260503215507 | 79 | 296 | 1.7 | 7.8 | 0.00 | 0.00 | 0.00 | 38 | 1011.9 |
| 20260503215011 | 79 | 315 | 0.9 | 7.8 | 0.00 | 0.00 | 0.00 | 36 | 1012.0 |
| 20260503214521 | 79 | 327 | 1.7 | 7.8 | 0.00 | 0.00 | 0.00 | 39 | 1012.1 |
| 20260503214009 | 79 | 333 | 2.6 | 7.8 | 0.00 | 0.00 | 0.00 | 39 | 1012.2 |
| 20260503213511 | 79 | 349 | 2.6 | 6.1 | 0.00 | 0.00 | 0.00 | 38 | 1012.3 |
| 20260503213021 | 78 | 27 | 0.9 | 4.3 | 0.00 | 0.00 | 0.00 | 46 | 1012.3 |
| 20260503212508 | 78 | 14 | 0.9 | 3.5 | 0.00 | 0.00 | 0.00 | 44 | 1012.4 |
| 20260503212012 | 77 | 350 | 1.7 | 7.8 | 0.00 | 0.00 | 0.00 | 47 | 1012.4 |
| 20260503211523 | 77 | 275 | 1.7 | 7.8 | 0.00 | 0.00 | 0.00 | 47 | 1012.3 |
| 20260503211016 | 76 | 9 | 0.9 | 7.0 | 0.00 | 0.00 | 0.00 | 46 | 1012.3 |
| 20260503210508 | 76 | 237 | 2.6 | 4.3 | 0.00 | 0.00 | 0.00 | 47 | 1012.4 |
| 20260503210022 | 78 | 148 | 1.7 | 4.3 | 0.00 | 0.00 | 0.00 | 44 | 1012.5 |
| 20260503205512 | 78 | 274 | 0.9 | 4.3 | 0.00 | 0.00 | 0.00 | 47 | 1012.5 |
| 20260503205008 | 78 | 40 | 0.9 | 3.5 | 0.00 | 0.00 | 0.00 | 44 | 1012.6 |
| 20260503204527 | 77 | 321 | 0.9 | 6.1 | 0.00 | 0.00 | 0.00 | 43 | 1012.7 |
| 20260503204016 | 77 | 274 | 1.7 | 6.1 | 0.00 | 0.00 | 0.00 | 49 | 1012.8 |
| 20260503203507 | 77 | 321 | 0.9 | 3.5 | 0.00 | 0.00 | 0.00 | 41 | 1012.8 |
| 20260503203026 | 77 | 325 | 1.7 | 4.3 | 0.00 | 0.00 | 0.00 | 41 | 1012.9 |
| 20260503202510 | 77 | 289 | 1.7 | 5.2 | 0.00 | 0.00 | 0.00 | 42 | 1012.8 |
| 20260503202010 | 76 | 301 | 0.9 | 5.2 | 0.00 | 0.00 | 0.00 | 44 | 1012.8 |
| 20260503201521 | 76 | 351 | 1.7 | 7.8 | 0.00 | 0.00 | 0.00 | 47 | 1012.9 |
| 20260503201006 | 76 | 270 | 0.9 | 7.8 | 0.00 | 0.00 | 0.00 | 43 | 1013.0 |
| 20260503200508 | 76 | 329 | 1.7 | 7.8 | 0.00 | 0.00 | 0.00 | 47 | 1013.0 |
| 20260503200023 | 76 | 143 | 0.9 | 4.3 | 0.00 | 0.00 | 0.00 | 46 | 1013.2 |
| 20260503195507 | 75 | 12 | 1.7 | 8.7 | 0.00 | 0.00 | 0.00 | 45 | 1013.3 |
| 20260503195010 | 75 | 286 | 1.7 | 8.7 | 0.00 | 0.00 | 0.00 | 51 | 1013.3 |
| 20260503194524 | 74 | 360 | 2.6 | 8.7 | 0.00 | 0.00 | 0.00 | 49 | 1013.3 |
| 20260503194008 | 74 | 283 | 0.9 | 3.5 | 0.00 | 0.00 | 0.00 | 50 | 1013.4 |
| 20260503193512 | 74 | 225 | 0.9 | 3.5 | 0.00 | 0.00 | 0.00 | 52 | 1013.4 |
| 20260503193036 | 73 | 221 | 1.7 | 3.5 | 0.00 | 0.00 | 0.00 | 55 | 1013.5 |
| 20260503192502 | 74 | 182 | 0.9 | 2.6 | 0.00 | 0.00 | 0.00 | 56 | 1013.5 |
| 20260503192005 | 74 | 198 | 2.6 | 3.5 | 0.00 | 0.00 | 0.00 | 55 | 1013.5 |
| 20260503191526 | 74 | 207 | 1.7 | 4.3 | 0.00 | 0.00 | 0.00 | 56 | 1013.5 |
| 20260503191004 | 73 | 159 | 0.9 | 5.2 | 0.00 | 0.00 | 0.00 | 56 | 1013.6 |
| 20260503190503 | 73 | 233 | 0.9 | 5.2 | 0.00 | 0.00 | 0.00 | 55 | 1013.6 |
| 20260503190004 | 73 | 190 | 0.9 | 5.2 | 0.00 | 0.00 | 0.00 | 56 | 1013.6 |
| 20260503185503 | 72 | 211 | 1.7 | 4.3 | 0.00 | 0.00 | 0.00 | 58 | 1013.7 |
| 20260503185003 | 73 | 213 | 2.6 | 4.3 | 0.00 | 0.00 | 0.00 | 55 | 1013.7 |
| 20260503184506 | 73 | 254 | 1.7 | 5.2 | 0.00 | 0.00 | 0.00 | 57 | 1013.7 |
| 20260503184008 | 73 | 119 | 0.9 | 5.2 | 0.00 | 0.00 | 0.00 | 54 | 1013.7 |
| 20260503183504 | 72 | 331 | 0.9 | 5.2 | 0.00 | 0.00 | 0.00 | 53 | 1013.8 |
| 20260503183011 | 72 | 350 | 1.7 | 6.1 | 0.00 | 0.00 | 0.00 | 52 | 1013.9 |
| 20260503182505 | 72 | 219 | 0.9 | 6.1 | 0.00 | 0.00 | 0.00 | 1013.9 | |
| 20260503182005 | 71 | 36 | 0.9 | 7.8 | 0.00 | 0.00 | 0.00 | 1014.0 | |
| 20260503181505 | 71 | 201 | 3.5 | 7.8 | 0.00 | 0.00 | 0.00 | 1014.2 | |
| 20260503181003 | 71 | 208 | 1.7 | 7.0 | 0.00 | 0.00 | 0.00 | 57 | 1014.1 |
| 20260503180509 | 71 | 245 | 1.7 | 7.8 | 0.00 | 0.00 | 0.00 | 57 | 1014.1 |
| 20260503180009 | 71 | 254 | 1.7 | 7.8 | 0.00 | 0.00 | 0.00 | 57 | 1014.1 |
| 20260503175504 | 71 | 62 | 2.6 | 5.2 | 0.00 | 0.00 | 0.00 | 55 | 1014.1 |
| 20260503175003 | 71 | 32 | 0.9 | 7.0 | 0.00 | 0.00 | 0.00 | 55 | 1014.2 |
| 20260503174506 | 71 | 283 | 1.7 | 8.7 | 0.00 | 0.00 | 0.00 | 54 | 1014.3 |
| 20260503174003 | 70 | 329 | 2.6 | 8.7 | 0.00 | 0.00 | 0.00 | 52 | 1014.4 |
| 20260503173503 | 70 | 343 | 2.6 | 7.0 | 0.00 | 0.00 | 0.00 | 53 | 1014.3 |
| 20260503173013 | 70 | 107 | 0.9 | 6.1 | 0.00 | 0.00 | 0.00 | 58 | 1014.4 |
| 20260503172506 | 70 | 200 | 3.5 | 6.1 | 0.00 | 0.00 | 0.00 | 57 | 1014.4 |
| 20260503172004 | 70 | 49 | 0.9 | 3.5 | 0.00 | 0.00 | 0.00 | 57 | 1014.4 |
| 20260503171515 | 70 | 209 | 0.9 | 3.5 | 0.00 | 0.00 | 0.00 | 56 | 1014.4 |
| 20260503171005 | 69 | 29 | 1.7 | 4.3 | 0.00 | 0.00 | 0.00 | 59 | 1014.4 |
| 20260503170504 | 69 | 61 | 0.0 | 4.3 | 0.00 | 0.00 | 0.00 | 59 | 1014.4 |
| 20260503151004 | 59 | 61 | 0.9 | 7.0 | 0.00 | 0.00 | 0.00 | 71 | 1014.6 |
| 20260503150504 | 59 | 50 | 0.0 | 2.6 | 0.00 | 0.00 | 0.00 | 70 | 1014.7 |
| 20260503131012 | 55 | 171 | 0.9 | 3.5 | 0.00 | 0.00 | 0.00 | 77 | 1014.2 |
| 20260503130507 | 55 | 259 | 0.9 | 3.5 | 0.00 | 0.00 | 0.00 | 78 | 1014.2 |
| 20260503110507 | 58 | 189 | 0.0 | 2.6 | 0.00 | 0.00 | 0.00 | 69 | 1014.5 |
| 20260503090504 | 57 | 122 | 0.0 | 1.7 | 0.00 | 0.00 | 0.00 | 69 | 1014.6 |
| 20260503081512 | 57 | 122 | 0.0 | 1.7 | 0.00 | 0.00 | 0.00 | 68 | 1014.6 |
| 20260503081006 | 57 | 122 | 0.0 | 1.7 | 0.00 | 0.00 | 0.00 | 68 | 1014.6 |
| 20260503080505 | 57 | 122 | 0.0 | 1.7 | 0.00 | 0.00 | 0.00 | 69 | 1014.6 |
| 20260503072504 | 57 | 174 | 0.0 | 1.7 | 0.00 | 0.00 | 0.00 | 71 | 1014.5 |
| 20260503072008 | 57 | 174 | 0.0 | 2.6 | 0.00 | 0.00 | 0.00 | 72 | 1014.5 |
| 20260503071512 | 57 | 174 | 0.0 | 2.6 | 0.00 | 0.00 | 0.00 | 71 | 1014.4 |
| 20260503071004 | 58 | 174 | 0.9 | 5.2 | 0.00 | 0.00 | 0.00 | 71 | 1014.4 |
| 20260503070504 | 58 | 151 | 0.9 | 5.2 | 0.00 | 0.00 | 0.00 | 70 | 1014.3 |
| 20260503055006 | 61 | 164 | 0.0 | 1.7 | 0.00 | 0.00 | 0.00 | 63 | 1014.4 |
| 20260503054514 | 61 | 164 | 0.0 | 1.7 | 0.00 | 0.00 | 0.00 | 62 | 1014.4 |
| 20260503054006 | 61 | 164 | 0.0 | 1.7 | 0.00 | 0.00 | 0.00 | 61 | 1014.4 |
| 20260503053508 | 61 | 165 | 0.0 | 1.7 | 0.00 | 0.00 | 0.00 | 60 | 1014.3 |
| 20260503053014 | 62 | 164 | 0.9 | 1.7 | 0.00 | 0.00 | 0.00 | 60 | 1014.3 |
| 20260503052504 | 62 | 164 | 0.0 | 4.3 | 0.00 | 0.00 | 0.00 | 60 | 1014.3 |
| 20260503052008 | 62 | 163 | 0.0 | 4.3 | 0.00 | 0.00 | 0.00 | 59 | 1014.4 |
| 20260503051515 | 62 | 163 | 1.7 | 4.3 | 0.00 | 0.00 | 0.00 | 59 | 1014.3 |
| 20260503051012 | 63 | 153 | 0.9 | 3.5 | 0.00 | 0.00 | 0.00 | 58 | 1014.3 |
| 20260503050504 | 63 | 137 | 0.9 | 2.6 | 0.00 | 0.00 | 0.00 | 57 | 1014.1 |
| 20260503050017 | 64 | 69 | 0.9 | 1.7 | 0.00 | 0.00 | 0.00 | 57 | 1014.1 |
| 20260503045507 | 65 | 48 | 0.0 | 2.6 | 0.00 | 0.00 | 0.00 | 54 | 1014.0 |
| 20260503045007 | 65 | 47 | 0.0 | 4.3 | 0.00 | 0.00 | 0.00 | 53 | 1014.0 |
| 20260503044524 | 66 | 42 | 0.9 | 4.3 | 0.00 | 0.00 | 0.00 | 51 | 1013.9 |
| 20260503044008 | 66 | 38 | 0.0 | 5.2 | 0.00 | 0.00 | 0.00 | 50 | 1013.8 |
| 20260503043503 | 66 | 360 | 0.9 | 5.2 | 0.00 | 0.00 | 0.00 | 50 | 1013.8 |
| 20260503043028 | 66 | 21 | 1.7 | 5.2 | 0.00 | 0.00 | 0.00 | 49 | 1013.8 |
| 20260503042507 | 66 | 20 | 0.9 | 4.3 | 0.00 | 0.00 | 0.00 | 49 | 1013.7 |
| 20260503042008 | 66 | 285 | 0.9 | 5.2 | 0.00 | 0.00 | 0.00 | 49 | 1013.7 |
| 20260503041526 | 67 | 326 | 0.9 | 5.2 | 0.00 | 0.00 | 0.00 | 48 | 1013.7 |
| 20260503041007 | 67 | 22 | 0.0 | 8.7 | 0.00 | 0.00 | 0.00 | 48 | 1013.5 |
| 20260503040509 | 67 | 31 | 0.9 | 8.7 | 0.00 | 0.00 | 0.00 | 48 | 1013.5 |
| 20260503040022 | 67 | 298 | 0.9 | 5.2 | 0.00 | 0.00 | 0.00 | 48 | 1013.4 |
| 20260503035514 | 67 | 32 | 0.9 | 4.3 | 0.00 | 0.00 | 0.00 | 49 | 1013.4 |
| 20260503035007 | 67 | 42 | 0.9 | 8.7 | 0.00 | 0.00 | 0.00 | 48 | 1013.3 |
| 20260503034516 | 67 | 360 | 0.9 | 8.7 | 0.00 | 0.00 | 0.00 | 48 | 1013.3 |
| 20260503034007 | 67 | 351 | 0.9 | 5.2 | 0.00 | 0.00 | 0.00 | 48 | 1013.2 |
| 20260503033503 | 67 | 360 | 0.9 | 3.5 | 0.00 | 0.00 | 0.00 | 48 | 1013.2 |
| 20260503033016 | 67 | 23 | 0.9 | 7.8 | 0.00 | 0.00 | 0.00 | 49 | 1013.1 |
| 20260503032507 | 67 | 338 | 1.7 | 7.8 | 0.00 | 0.00 | 0.00 | 49 | 1013.1 |
| 20260503032007 | 68 | 42 | 0.9 | 8.7 | 0.00 | 0.00 | 0.00 | 48 | 1013.1 |
| 20260503031514 | 68 | 334 | 1.7 | 8.7 | 0.00 | 0.00 | 0.00 | 48 | 1013.0 |
| 20260503031008 | 68 | 317 | 1.7 | 7.0 | 0.00 | 0.00 | 0.00 | 47 | 1012.9 |
| 20260503030508 | 68 | 347 | 1.7 | 7.0 | 0.00 | 0.00 | 0.00 | 48 | 1012.9 |
| 20260503030012 | 68 | 346 | 1.7 | 7.8 | 0.00 | 0.00 | 0.00 | 47 | 1012.8 |
| 20260503025507 | 69 | 348 | 1.7 | 7.8 | 0.00 | 0.00 | 0.00 | 46 | 1012.8 |
| 20260503025006 | 69 | 350 | 1.7 | 7.8 | 0.00 | 0.00 | 0.00 | 45 | 1012.8 |
| 20260503024513 | 69 | 333 | 1.7 | 4.3 | 0.00 | 0.00 | 0.00 | 47 | 1012.8 |
| 20260503024006 | 69 | 329 | 1.7 | 9.6 | 0.00 | 0.00 | 0.00 | 46 | 1012.8 |
| 20260503023509 | 69 | 328 | 1.7 | 9.6 | 0.00 | 0.00 | 0.00 | 46 | 1012.9 |
| 20260503023015 | 69 | 17 | 2.6 | 9.6 | 0.00 | 0.00 | 0.00 | 47 | 1012.8 |
| 20260503022506 | 70 | 333 | 1.7 | 8.7 | 0.00 | 0.00 | 0.00 | 47 | 1012.9 |
| 20260503022012 | 70 | 351 | 2.6 | 8.7 | 0.00 | 0.00 | 0.00 | 46 | 1012.8 |
| 20260503021514 | 70 | 17 | 2.6 | 7.8 | 0.00 | 0.00 | 0.00 | 46 | 1012.8 |
| 20260503021011 | 70 | 321 | 2.6 | 11.3 | 0.00 | 0.00 | 0.00 | 46 | 1012.8 |
| 20260503020507 | 70 | 318 | 3.5 | 11.3 | 0.00 | 0.00 | 0.00 | 45 | 1012.8 |
| 20260503020014 | 70 | 331 | 2.6 | 9.6 | 0.00 | 0.00 | 0.00 | 44 | 1012.9 |
| 20260503015507 | 71 | 292 | 3.5 | 20.0 | 0.00 | 0.00 | 0.00 | 46 | 1012.9 |
| 20260503015009 | 71 | 13 | 3.5 | 20.0 | 0.00 | 0.00 | 0.00 | 45 | 1012.9 |
| 20260503014516 | 72 | 311 | 2.6 | 9.6 | 0.00 | 0.00 | 0.00 | 44 | 1012.8 |
| 20260503014007 | 72 | 333 | 3.5 | 9.6 | 0.00 | 0.00 | 0.00 | 43 | 1013.0 |
| 20260503013507 | 72 | 338 | 2.6 | 9.6 | 0.00 | 0.00 | 0.00 | 43 | 1013.0 |
| 20260503013016 | 72 | 296 | 3.5 | 11.3 | 0.00 | 0.00 | 0.00 | 43 | 1013.0 |
| 20260503012509 | 72 | 338 | 3.5 | 11.3 | 0.00 | 0.00 | 0.00 | 43 | 1013.0 |
| 20260503012005 | 73 | 304 | 3.5 | 11.3 | 0.00 | 0.00 | 0.00 | 43 | 1013.0 |
| 20260503011517 | 73 | 32 | 1.7 | 8.7 | 0.00 | 0.00 | 0.00 | 43 | 1013.0 |
| 20260503011007 | 73 | 15 | 2.6 | 10.4 | 0.00 | 0.00 | 0.00 | 42 | 1013.1 |
| 20260503010506 | 73 | 319 | 1.7 | 9.6 | 0.00 | 0.00 | 0.00 | 42 | 1013.1 |
| 20260503010014 | 73 | 330 | 3.5 | 11.3 | 0.00 | 0.00 | 0.00 | 43 | 1013.0 |
| 20260503005505 | 73 | 325 | 3.5 | 11.3 | 0.00 | 0.00 | 0.00 | 43 | 1013.1 |
| 20260503005006 | 74 | 11 | 1.7 | 10.4 | 0.00 | 0.00 | 0.00 | 43 | 1013.1 |
| 20260503004517 | 74 | 279 | 1.7 | 9.6 | 0.00 | 0.00 | 0.00 | 44 | 1013.1 |
| 20260503004007 | 74 | 332 | 3.5 | 9.6 | 0.00 | 0.00 | 0.00 | 42 | 1013.2 |
| 20260503003507 | 74 | 324 | 2.6 | 11.3 | 0.00 | 0.00 | 0.00 | 43 | 1013.3 |
| 20260503003013 | 74 | 350 | 1.7 | 11.3 | 0.00 | 0.00 | 0.00 | 42 | 1013.3 |
| 20260503002505 | 74 | 327 | 3.5 | 11.3 | 0.00 | 0.00 | 0.00 | 43 | 1013.2 |
| 20260503002009 | 74 | 288 | 2.6 | 9.6 | 0.00 | 0.00 | 0.00 | 43 | 1013.2 |
| 20260503001516 | 74 | 322 | 2.6 | 9.6 | 0.00 | 0.00 | 0.00 | 44 | 1013.3 |
| 20260503001009 | 74 | 9 | 2.6 | 7.8 | 0.00 | 0.00 | 0.00 | 43 | 1013.3 |
| 20260503000507 | 74 | 323 | 1.7 | 11.3 | 0.00 | 0.00 | 0.00 | 43 | 1013.3 |
| 20260503000018 | 75 | 9 | 1.7 | 17.4 | 0.00 | 0.00 | 0.00 | 44 | 1013.4 |
| 20260502235507 | 75 | 57 | 2.6 | 17.4 | 0.00 | 0.00 | 0.00 | 44 | 1013.3 |
| 20260502235006 | 75 | 319 | 3.5 | 14.8 | 0.00 | 0.00 | 0.00 | 44 | 1013.4 |
| 20260502234518 | 75 | 200 | 0.9 | 10.4 | 0.00 | 0.00 | 0.00 | 45 | 1013.5 |
| 20260502234008 | 75 | 350 | 2.6 | 7.8 | 0.00 | 0.00 | 0.00 | 44 | 1013.6 |
| 20260502233507 | 74 | 321 | 1.7 | 13.0 | 0.00 | 0.00 | 0.00 | 45 | 1013.7 |
| 20260502233019 | 74 | 326 | 3.5 | 13.0 | 0.00 | 0.00 | 0.00 | 44 | 1013.7 |
| 20260502232507 | 74 | 9 | 2.6 | 9.6 | 0.00 | 0.00 | 0.00 | 45 | 1013.9 |
| 20260502232008 | 74 | 15 | 1.7 | 9.6 | 0.00 | 0.00 | 0.00 | 45 | 1013.9 |
| 20260502231516 | 74 | 9 | 2.6 | 10.4 | 0.00 | 0.00 | 0.00 | 48 | 1013.9 |
| 20260502231011 | 74 | 360 | 2.6 | 10.4 | 0.00 | 0.00 | 0.00 | 46 | 1013.9 |
| 20260502230507 | 74 | 17 | 2.6 | 9.6 | 0.00 | 0.00 | 0.00 | 47 | 1014.0 |
| 20260502230023 | 74 | 350 | 3.5 | 11.3 | 0.00 | 0.00 | 0.00 | 47 | 1014.2 |
| 20260502225507 | 74 | 336 | 2.6 | 12.2 | 0.00 | 0.00 | 0.00 | 48 | 1014.2 |
| 20260502225008 | 73 | 291 | 2.6 | 12.2 | 0.00 | 0.00 | 0.00 | 48 | 1014.2 |